COSMOS 1199

Satellite information

Favourite Embed

Satellite Type and Status

PAYLOADIN ORBIT

Key statistics

Satellite COSMOS 1199 at a glance.

Uptime

16553

Days in orbit

Revolutions

≈ 12.4

Per day

Orbit

LEO

Low Earth Orbit

Inclination

74.0

Latest

Satellite identification and parameters

Extended collection of information and parameters for COSMOS 1199.

Object identification

Identified? True

Debris? False

Object name: COSMOS 1199

International designator: 1980-058H

Object number (NORAD): 11882

Object ID (CCSDS): 11882

Country: COMMONWEALTH OF INDEPENDENT STATES (CIS)

Current information (Y/N): Y

RCS size: MEDIUM

Orbital parameters

Period: 116.017 minutes

Inclination: 74.016 deg

SMA: 7879.647 km

Apoapsis: 1530.928 km

Periapsis: 1472.095 km

RAAN: 259.2248 deg

Eccentricy: 0.00373327

Argument of periapsis: 290.6931 deg

Mean anomaly: 184.288 deg

Mean motion: 12.41202553 rev/day

Mean motion (dot): -0.00000018 rev/day2

B* drag term: -0.000018472305 1/REarth

Two-line elements (TLE)

Creation date: Nov. 1, 2025, 7:40 p.m.

Reference frame: TEME

Reference center: EARTH

Epoch: Nov. 1, 2025, 8:34 a.m. UTC

TLE line 0: 0 COSMOS 1199

TLE line 1: 1 11882U 80058H 25305.35733316 -.00000018 00000-0 -18472-4 0 9994

TLE line 2: 2 11882 74.0160 259.2248 0037333 290.6931 184.2880 12.41202553 53162

Live tracking on map

Real-time ground track for satellite COSMOS 1199.

In-orbit conjunctions

There are no conjunctions computed for COSMOS 1199, at the moment. Check back to stay up to date, as we update our databases every day.

Go to all conjunctions

Associated space launch

Optical film-return reconnaissance satellite

COSMOS 1199 was lifted into orbit during the mission ‘Soyuz U | Zenit-6U 22’, on board a Soyuz U space rocket.

The launch took place on July 9, 1980, 12:40 p.m. from 41/1.

For more information about the launch, click the button.

Launch to space Soyuz U | Zenit-6U 22
Soyuz U | Zenit-6U 22

Agency: N/A

Status: Launch Successful

Launch date: July 9, 1980, 12:40 p.m. UTC

Rocket: Soyuz U

Launch pad: 41/1

Location: Plesetsk Cosmodrome, Russian Federation

...

Latest news about this satellite

There are no fresh news available about this satellite. Check back as we update our databases every day.


Newsletter sign-up

Weekly statistics, charts and insights to help you stay on top of the space industry.